Leadville, CO

11:10 AM MDT on March 28, 2017 (GMT -0600)
Lake County

Weather History for KLXV - October, 2013

Change the Weather History Date:

Saturday, October 12, 2013

  Actual Average Record
Temperature  
Mean Temperature 32 °F -  
Max Temperature 46 °F 51 °F 66 °F (1991)
Min Temperature 17 °F 24 °F 7 °F (1982)
Degree Days  
Heating Degree Days 33 27  
Month to date heating degree days 324 306  
Since 1 July heating degree days 1406 1604  
Cooling Degree Days 0 0  
Month to date cooling degree days 0 0  
Year to date cooling degree days 0 0  
Moisture  
Dew Point 16 °F    
Average Humidity 54    
Maximum Humidity 85    
Minimum Humidity 22    
Precipitation  
Precipitation 0.00 in 0.03 in 0.36 in (2012)
Month to date precipitation 0.28 0.35  
Year to date precipitation 15.50 10.38  
Sea Level Pressure  
Sea Level Pressure 30.04 in    
Wind  
Wind Speed 5 mph (ESE)    
Max Wind Speed 18 mph    
Max Gust Speed 23 mph    
Visibility 10 miles    
Events      
T = Trace of Precipitation, MM = Missing Value Source: NWS Daily Summary

Daily Weather History Graph

Daily Weather History Graph

Search for Another Location

Airport or City:

Trip Planner

Search our weather history database for the weather conditions in past years. The results will help you decide how hot, cold, wet, or windy it might be!

Date:

Astronomy

Oct. 12, 2013 Rise Set
Actual Time 7:12 AM MDT 6:30 PM MDT
Civil Twilight 6:45 AM MDT 6:57 PM MDT
Nautical Twilight 6:14 AM MDT 7:28 PM MDT
Astronomical Twilight 5:43 AM MDT 7:59 PM MDT
Moon 2:39 PM MDT (10/12) 12:21 AM MDT (10/12)
Length of Visible Light 12h 11m
Length of Day
11h 18m
First Quarter, 59% of the Moon is Illuminated
Oct 12
First Quarter
Oct 18
Full
Oct 26
Last Quarter
Nov 3
New
Nov 9
First Quarter

Hourly Weather History & Observations

Time (MDT) Temp. Windchill Dew Point Humidity Pressure Visibility Wind Dir Wind Speed Gust Speed Precip Events Conditions
12:53 AM 28.0 °F 22.8 °F 19.9 °F 72% 30.02 in 10.0 mi NNE 4.6 mph - N/A   Scattered Clouds
1:53 AM 24.1 °F 18.2 °F 19.0 °F 81% 30.04 in 10.0 mi East 4.6 mph - N/A   Clear
2:53 AM 23.0 °F 17.0 °F 18.0 °F 81% 30.03 in 10.0 mi NNE 4.6 mph - N/A   Clear
3:53 AM 21.9 °F 13.4 °F 17.1 °F 82% 30.04 in 10.0 mi NE 6.9 mph - N/A   Partly Cloudy
4:53 AM 19.9 °F 12.1 °F 16.0 °F 85% 30.04 in 10.0 mi East 5.8 mph - N/A   Clear
5:53 AM 19.9 °F 14.9 °F 16.0 °F 85% 30.09 in 10.0 mi ENE 3.5 mph - N/A   Clear
6:53 AM 19.0 °F - 15.1 °F 85% 30.11 in 10.0 mi Calm Calm - N/A   Clear
7:53 AM 17.1 °F 11.7 °F 14.0 °F 88% 30.16 in 10.0 mi NE 3.5 mph - N/A   Clear
8:53 AM 28.0 °F - 19.0 °F 69% 30.11 in 10.0 mi Calm Calm - N/A   Clear
9:53 AM 30.9 °F - 19.0 °F 61% 30.09 in 10.0 mi Calm Calm - N/A   Clear
10:53 AM 35.1 °F - 17.1 °F 48% 30.05 in 10.0 mi Calm Calm - N/A   Clear
11:53 AM 37.9 °F 35.5 °F 17.1 °F 43% 30.00 in 10.0 mi Variable 3.5 mph - N/A   Clear
12:53 PM 39.9 °F 34.5 °F 14.0 °F 35% 29.98 in 10.0 mi South 8.1 mph - N/A   Clear
1:53 PM 43.0 °F 36.4 °F 14.0 °F 31% 29.96 in 10.0 mi SSW 12.7 mph 17.3 mph N/A   Clear
2:53 PM 45.0 °F 38.9 °F 10.9 °F 25% 29.95 in 10.0 mi South 12.7 mph 20.7 mph N/A   Clear
3:53 PM 45.0 °F 41.2 °F 12.0 °F 26% 29.95 in 10.0 mi South 6.9 mph 17.3 mph N/A   Clear
4:53 PM 45.0 °F 37.9 °F 9.0 °F 23% 29.96 in 10.0 mi South 16.1 mph 20.7 mph N/A   Clear
5:53 PM 43.0 °F 36.8 °F 10.9 °F 27% 30.00 in 10.0 mi South 11.5 mph - N/A   Clear
6:53 PM 37.9 °F 32.1 °F 12.0 °F 35% 30.06 in 10.0 mi South 8.1 mph - N/A   Clear
7:53 PM 32.0 °F 28.7 °F 15.1 °F 50% 30.13 in 10.0 mi ENE 3.5 mph - N/A   Clear
8:53 PM 30.0 °F - 17.1 °F 59% 30.09 in 10.0 mi Calm Calm - N/A   Clear
9:53 PM 28.9 °F - 19.0 °F 67% 30.09 in 10.0 mi Calm Calm - N/A   Clear
10:53 PM 28.9 °F 23.9 °F 24.1 °F 82% 30.06 in 10.0 mi South 4.6 mph - N/A   Clear
11:53 PM 26.1 °F - 21.0 °F 81% 30.06 in 10.0 mi Calm Calm - N/A   Clear